This is the latest recevied weather packets stored in our database for station/object KN6WGU. If no packets are shown the sender has not sent any weather packets the latest 10 day(s).
| Time | Temp. | Humidity | Pressure | Rain* | Wind** | Luminosity | Snow |
|---|---|---|---|---|---|---|---|
| 1788529959 | 21.11° C | 99% | 1009 hPa | 1.27 mm | - | 7 W/m² | - |
| 1788529655 | 21.11° C | 99% | 1009.3 hPa | 1.78 mm | - | 6 W/m² | - |
| 1788529354 | 21.11° C | 99% | 1009.2 hPa | 3.05 mm | - | 5 W/m² | - |
| 1788529049 | 21.11° C | 99% | 1009.4 hPa | 3.05 mm | - | 4 W/m² | - |
| 1788528746 | 21.11° C | 99% | 1009.4 hPa | 1.78 mm | - | 4 W/m² | - |
| 1788528444 | 21.11° C | 99% | 1009.7 hPa | 3.05 mm | - | 4 W/m² | - |
| 1788528140 | 21.11° C | 99% | 1009.5 hPa | 4.32 mm | - | 4 W/m² | - |
| 1788527838 | 21.11° C | 99% | 1010.1 hPa | 3.05 mm | - | 6 W/m² | - |
| 1788527534 | 21.11° C | 99% | 1009.9 hPa | 0 mm | - | 8 W/m² | - |
| 1788527229 | 21.11° C | 99% | 1009.6 hPa | 1.78 mm | - | 8 W/m² | - |
| 1788526928 | 21.11° C | 99% | 1009.3 hPa | 1.78 mm | - | 7 W/m² | - |
| 1788526625 | 21.11° C | 99% | 1009.3 hPa | 1.27 mm | - | 6 W/m² | - |
| 1788526321 | 20.56° C | 99% | 1009.2 hPa | 1.27 mm | - | 5 W/m² | - |
| 1788526015 | 20.56° C | 99% | 1009.7 hPa | 1.27 mm | - | 5 W/m² | - |
| 1788525710 | 20.56° C | 99% | 1009.8 hPa | 0 mm | - | 3 W/m² | - |
| 1788525404 | 20.56° C | 99% | 1009.6 hPa | 0 mm | - | 3 W/m² | - |
| 1788525101 | 20.56° C | 99% | 1009.6 hPa | 0 mm | - | 8 W/m² | - |
| 1788524794 | 20.56° C | 99% | 1009.5 hPa | 0 mm | - | 6 W/m² | - |
| 1788524490 | 20.56° C | 99% | 1009.4 hPa | 0 mm | - | 15 W/m² | - |
| 1788524185 | 20.56° C | 99% | 1009.2 hPa | 0 mm | - | 18 W/m² | - |
| 1788523880 | 20.56° C | 99% | 1009.2 hPa | 0 mm | - | 18 W/m² | - |
| 1788523606 | 20.56° C | 99% | 1009 hPa | 0 mm | - | 15 W/m² | - |
| 1788523273 | 20.56° C | 99% | 1009.2 hPa | 0 mm | - | 13 W/m² | - |
| 1788522967 | 20.56° C | 99% | 1008.9 hPa | 0 mm | - | 11 W/m² | - |
| 1788522663 | 20.56° C | 99% | 1008.9 hPa | 0 mm | - | 12 W/m² | - |
* Rain latest hour (hover to see other rain measurements)
** Current wind speed in m/s (hover to see current wind gust speed)